User: anonymous   Login
Location: Unspecified
(0.0000°N, 0.0000°E)
Time: 21:19:13
(UTC+00:00)
Language:

EDUSAT - Orbit

View from above orbital plane
View from above orbital plane
View from above satellite
View from above satellite

Ground track
Ground track

The orbit data is extracted from the following two-line orbital elements,

1 37788U 11044A   17141.89572514 +.00000132 +00000-0 +30101-4 0  9993
2 37788 098.2457 260.5260 0038603 168.8436 306.0580 14.70690223309027
Epoch (UTC): 21 May 2017 21:29:50
Eccentricity: 0.0038603
inclination: 98.2457°
perigee height: 632 km
apogee height: 686 km
right ascension of ascending node: 260.5260°
argument of perigee: 168.8436°
revolutions per day: 14.70690223
mean anomaly at epoch: 306.0580°
orbit number at epoch: 30902

The dashed part of the orbit path shows where the satellite is in the earth's shadow,  

DLR